Location: *
(46.7945°S, 173.0319°W)
Time: 00:52:42
(UTC+00:00)

Daily predictions for brighter satellites

Satellite Brightness Start Highest point End
(mag) Time Altitude Azimuth Time Altitude Azimuth Time Altitude Azimuth
BREEZE-M DEB (TANK) 4.4 05:57:23 10° N 06:01:04 29° ENE 06:11:00 10° ESE
Cosmos 2279 Rocket 4.4 05:56:51 10° S 06:02:49 43° ESE 06:08:44 10° NE
YAOGAN 1 4.1 06:01:42 10° SE 06:04:31 17° E 06:07:20 10° NE
USA 281 3.4 05:58:14 10° SSE 06:04:55 88° WSW 06:11:31 10° NNW
NOAA 11 4.4 06:05:27 10° SSE 06:10:53 52° E 06:16:15 10° N
Cosmos 1943 4.3 06:07:43 10° NNE 06:12:02 22° E 06:16:21 10° SE
SMAP 3.3 06:08:14 10° S 06:13:00 78° WSW 06:17:41 10° NNW
Orbus 7S? 3.7 06:13:31 10° WNW 06:16:47 44° SW 06:19:17 10° SE
SL-4 R/B 1.9 06:14:19 10° WSW 06:17:49 56° SSE 06:20:59 12° E
NOAA 12 4.2 06:13:01 10° SSE 06:18:25 86° WSW 06:23:43 10° NNW
Cosmos 1624 Rocket 4.5 06:13:43 10° S 06:18:47 43° ESE 06:23:46 10° NE
BREEZE-M DEB (TANK) 3.5 06:08:32 10° W 06:19:44 68° S 06:23:07 10° ESE
Cosmos 1939 Rocket 3.2 06:16:47 10° SSE 06:20:41 44° E 06:24:36 10° N
Okean 2 3.5 06:19:12 10° N 06:23:21 83° WSW 06:27:32 10° S
USA 267 4.4 06:18:38 10° ESE 06:24:34 37° S 06:30:31 10° WSW
FALCON 9 DEB 4.1 06:23:56 10° W 06:27:08 41° SSW 06:30:20 10° SE
Cosmos 1544 Rocket 3.9 06:24:33 10° S 06:28:56 46° ESE 06:33:13 10° NNE
FengYun 1-2 T 4.2 06:23:39 10° SSE 06:29:15 80° ENE 06:34:49 10° NNW
Envisat 4.4 06:24:51 10° S 06:29:45 44° WSW 06:34:36 10° NW
Cosmos 923 Rocket 4.0 06:25:57 10° NNW 06:31:14 87° ENE 06:36:37 10° SSE
Cosmos 1470 2.8 06:27:29 10° S 06:31:34 72° E 06:35:34 10° NNE
Cosmos 2369 Rocket 2.3 06:28:31 10° SSW 06:34:09 62° ESE 06:39:43 10° NE
CZ-4B R/B 4.2 06:31:36 10° S 06:36:52 52° WSW 06:42:09 10° NW
FALCON 9 DEB 4.3 06:34:07 10° W 06:37:16 38° SSW 06:40:27 10° SE
Cosmos 1437 3.0 06:35:46 10° NNW 06:38:47 65° WSW 06:41:50 10° S
Cosmos 158 Rocket 3.8 06:34:43 10° NNW 06:39:37 88° ENE 06:44:37 10° SSE
Cosmos 1603 4.0 06:35:04 10° N 06:40:19 42° ENE 06:45:39 10° SE
DMSP B5D2-2 4.5 06:35:24 10° N 06:40:40 69° WNW 06:45:58 10° SSW
Okean-O 2.9 06:37:15 10° SSE 06:41:39 48° E 06:45:58 10° N
Cosmos 1025 Rocket 3.4 06:40:11 10° NNE 06:44:21 42° E 06:48:32 10° SSE
Cosmos 1707 2.7 06:42:00 10° N 06:45:53 63° E 06:49:50 10° SSE
Cosmos 2263 4.3 06:42:20 10° SSW 06:47:59 59° ESE 06:52:38 15° NE
IRS-1C Rocket 4.1 06:43:24 10° SSE 06:48:47 80° ENE 06:54:05 10° NNW
CZ-2D R/B 3.2 06:45:01 10° SSE 06:48:58 69° ENE 06:52:52 10° N
In-Cosmos 22 4.4 06:47:08 10° NNE 06:52:38 50° E 06:58:16 10° SSE
CZ-2C R/B 3.7 06:47:29 10° N 06:52:50 49° W 06:58:10 10° SSW
Meteor 2-10 4.3 06:54:32 10° SSW 07:00:21 84° W 07:06:08 10° N
Helios 1A Rocket 3.0 06:59:31 10° SSE 07:03:39 80° WSW 07:07:45 10° NNW
Okean O Rocket 4.2 07:00:17 10° S 07:03:54 25° WSW 07:07:32 10° WNW
Cosmos 1536 Rocket 3.7 06:59:43 10° N 07:04:04 52° E 07:08:27 10° SSE
CSL-04 Rocket 4.0 06:59:23 10° SSE 07:04:27 40° E 07:09:28 10° NNE
Cosmos 1953 2.3 07:00:42 10° S 07:04:51 65° ESE 07:07:40 19° NNE
CSL-04 Debris 4.5 07:00:30 10° SSE 07:05:47 44° E 07:10:59 10° N
SL-24 R/B - RUBIN 2 4.3 07:02:18 10° SSW 07:06:29 41° SE 07:08:22 28° E
Cosmos 1900 4.3 07:01:41 10° NNW 07:06:39 66° ENE 07:11:35 10° SE
CZ-2C R/B 3.0 07:02:00 10° SSE 07:06:45 52° E 07:11:33 10° N
Cosmos 1656 Rocket 3.7 07:02:40 10° SSW 07:08:10 62° ESE 07:11:18 25° NE
Cosmos 1455 Rocket 4.3 07:08:21 10° SSW 07:12:42 45° W 07:16:59 10° NNW
Cosmos 2228 4.1 07:10:15 10° SSE 07:14:04 26° ESE 07:14:13 26° ESE
ERBS 2.7 07:11:34 10° SW 07:14:55 51° SSE 07:15:32 43° ESE
Cosmos 1371 Rocket 4.5 07:10:05 10° SSW 07:15:20 61° WNW 07:20:34 10° N
H-2A R/B 3.5 07:14:32 33° NE 07:16:11 58° ESE 07:20:18 10° S
CZ-4 R/B 1.6 07:11:58 10° S 07:16:11 79° WSW 07:20:26 10° NNW
Genesis I 3.7 07:14:27 10° SW 07:18:21 58° WNW 07:20:12 28° N
Lacrosse 5 2.6 07:13:36 10° WSW 07:18:35 50° NW 07:21:41 22° NNE
SJ-11-01 4.4 07:14:07 10° SSE 07:18:53 55° E 07:23:34 10° N
Nadezhda 4 Rocket 3.9 07:13:58 10° N 07:20:13 73° E 07:26:37 10° SSE
SeaSat 1 2.4 07:15:38 10° SSE 07:20:39 88° ENE 07:25:38 10° NNW
EO 1 Delta rocket 3.9 07:16:12 10° N 07:20:56 78° W 07:25:44 10° SSW
Cosmos 1943 Rocket 3.4 07:16:12 10° SW 07:21:31 40° WNW 07:26:47 10° N
Atlas Centaur 2 4.0 07:18:12 10° NNW 07:21:43 15° N 07:22:39 14° NNE
Cosmos 1674 2.7 07:23:45 51° ENE 07:24:10 55° E 07:27:55 10° SSE
GEOS 3 Rocket 4.1 07:20:00 10° SSE 07:24:59 59° SW 07:29:59 10° WNW
Cosmos 2056 Rocket 4.2 07:23:56 10° SSW 07:29:16 54° WNW 07:34:07 12° N
H-2A R/B 1.9 07:25:13 10° SSE 07:30:15 63° ENE 07:34:28 14° N
Cosmos 1420 Rocket 4.0 07:26:16 10° SSW 07:31:38 88° WNW 07:34:20 30° NNE
ATLAS 5 CENTAUR R/B 2.9 07:26:52 10° SW 07:31:56 41° WNW 07:34:50 19° N
Cosmos 1726 3.4 07:29:29 10° SSW 07:33:00 40° W 07:35:59 13° NNW
FALCON 9 DEB 3.3 07:31:48 10° WSW 07:35:19 65° NW 07:35:25 64° NNW
HJ-1C 3.3 07:32:25 10° SSE 07:35:50 87° W 07:36:07 73° NNW
SL-08 RB Rocket 4.3 07:32:20 10° SSE 07:36:14 40° ESE 07:36:14 40° ESE
ARGOS 3.2 07:32:46 10° SSE 07:38:08 56° E 07:40:26 33° NNE
SL-16 R/B 4.4 07:33:30 10° WNW 07:38:14 26° SW 07:43:01 10° S
YAOGAN 1 3.3 07:36:38 10° S 07:40:58 55° WSW 07:45:15 10° NNW
Cosmos 371 Rocket 4.1 07:37:33 10° SSW 07:42:18 49° WNW 07:45:16 21° N
Cosmos 1452 Rocket 3.4 07:43:14 10° SSW 07:48:37 84° ESE 07:49:59 52° NNE
Cosmos 332 Rocket 4.2 07:44:24 10° SSW 07:49:12 61° WNW 07:51:03 35° N
Cosmos 2058 Rocket 4.5 07:46:23 10° S 07:49:05 26° SE 07:49:05 26° SE
Cosmos 1908 3.4 07:46:46 10° SSW 07:50:45 72° W 07:51:08 66° NW
Cosmos 1300 4.2 07:48:13 10° S 07:50:21 26° SSE 07:50:21 26° SSE
Cosmos 1943 3.6 07:49:52 10° NW 07:55:34 64° WSW 08:01:19 10° SSE
SL-4 R/B 3.1 07:54:05 10° WSW 07:56:35 30° WNW 07:56:35 30° WNW
Cosmos 1626 4.3 08:01:34 18° SSE 08:01:34 18° SSE 08:02:39 10° SSE
Meteor 1-24 Rocket 3.9 08:01:31 56° ENE 08:01:54 56° E 08:07:50 10° SSE
Cosmos 1241 Rocket 4.4 07:58:37 10° SW 08:04:53 78° WNW 08:06:29 52° NNE
Cosmos 1356 Rocket 4.4 08:01:22 10° SSW 08:05:18 43° W 08:06:05 38° NW
Cosmos 1818 3.9 08:01:12 10° SW 08:06:32 59° WNW 08:07:37 49° NNW
USA 267 4.0 08:03:55 30° ESE 08:06:44 45° SSE 08:12:57 10° SW
Meteor 2-5 Rocket 3.7 08:07:43 46° N 08:09:36 81° E 08:15:39 10° SSE
Cosmos 2369 Rocket 4.2 08:13:25 10° SW 08:17:40 22° W 08:21:48 10° NNW
Cosmos 1697 Rocket 4.4 08:17:18 10° S 08:21:23 20° SE 08:21:29 20° SE
Cosmos 1726 Rocket 4.1 08:18:48 10° S 08:22:23 55° SSW 08:22:23 55° SSW
Cosmos 2026 Rocket 4.0 08:22:06 40° NNW 08:24:31 80° W 08:30:48 10° S
Cosmos 1606 Rocket 4.2 08:21:57 10° SSW 08:25:54 57° WSW 08:25:54 57° WSW
MOS 1 4.5 08:22:39 10° SSE 08:27:23 58° SE 08:27:23 58° SE
Cosmos 1980 Rocket 4.3 08:25:45 10° S 08:28:50 14° SE 08:29:22 14° SE
S3M 4.2 08:24:03 10° S 08:30:06 58° ESE 08:30:06 58° ESE
Ariane Rocket 3.6 08:47:34 10° S 08:51:51 53° SSW 08:51:51 53° SSW
H-2A R/B 4.4 09:05:38 10° SSW 09:09:12 20° WSW 09:12:42 10° WNW
Resurs 01 Rocket 4.2 09:19:38 10° S 09:20:37 16° S 09:20:37 16° S
USA 267 3.8 09:51:14 52° SW 09:51:14 52° SW 09:56:04 10° SW
Cosmos 1697 Rocket 4.4 10:00:28 10° SSW 10:03:12 30° SSW 10:03:12 30° SSW
Cosmos 1980 Rocket 4.0 10:08:26 10° SSW 10:11:07 28° S 10:11:07 28° S
Cosmos 2322 Rocket 4.4 10:20:10 10° S 10:22:44 19° SSE 10:22:44 19° SSE
SL-16 R/B 4.3 10:33:34 10° SSW 10:36:04 22° S 10:36:04 22° S
Resurs 1-4 Rocket 4.5 11:17:15 19° SSE 11:17:15 19° SSE 11:19:00 10° S
CENTAUR R/B 4.0 11:22:52 36° SSE 11:22:52 36° SSE 11:26:50 10° SE
CZ-2D R/B 4.4 11:31:59 20° S 11:31:59 20° S 11:33:43 10° S
Cosmos 2333 Rocket 4.5 11:26:30 10° S 11:29:50 19° SSE 11:29:50 19° SSE
ATLAS 3B R/B 4.0 11:36:45 37° SE 11:36:45 37° SE 11:40:54 10° SE
Cosmos 2360 Rocket 4.4 11:42:14 10° SSW 11:44:15 21° S 11:44:15 21° S
